Probability
3 10 6 0 0 3 3 0 0 0 0 0 0 0 0 0 0 0 0 0 0 0 0 0 0 0 0 0 0 0 3 3 0 0 0 0 0 0
6 0 0 0 0 0 0 0 0 0 0 0 0 0 0 0 0 0 0 0 0 0 0 0 0 0 0 0 0 0 0 0 0 0 0 0 0 0
0 0 0 0 0 0 0 0 0 0 0 0 0 0 0 0 0 0 0 0 0 0 0 0 0 0 0 0 0 0 0 0 0 0 0 0 0 0
0 0 0 0 0 0 0 0 0 0 0 0 0 0 0 0 0 0 0 0 0 0 0 0 0 0 0 0 0 0 0 0 0 0 0 0 0 0
0 0 0 0 0 0 0 0 0 0 0 0 0 0 0 0 0 0 0 0 0 0 0 0 0 0 0 0 0 0 0 0 0 0 0 0 0 0
0 0 0 0 0 0 0 0 0 0 0 0 0 0 0 0 0 0 0 0 0 0 0 0 0 0 0 0 0 0 0 0 0 0 0 0 0 0
0 0 0 0 0 0 0 0 0 0 0 0 0 0 0 0 0 0 0 0 0 0 0 0 0 0 0 0 0 0 0 0 0 0 0 0 0 0
0 0 0 0 0 0 0 0 0 0 0 0 0 0 0 0 0 0 0 0 0 0 0 0 0 0 0 0 0 0 0 0 0 0 0 0 0 0
0 0 0 0 0 0 0 0 0 0 0 0 0 0 0 0 0 0 0 0 0 0 0 0 0 0 0 0 0 0 0 0 0 0 0 0 0 0
0 0 0 0 0 0 0 0 0 0 0 0 0 0 0 0 0 0 0 0 0 0 0 0 0 0 0 0 0 0 0 0 0 0 0 0 0 0
0 0 0 0 0 0 0 0 0 0 0 0 0 0 0 0 0 0 0 0 0 0 0 0 0 0 0 0 0 0 0 0 0 0 0 0 0 0
3 0 0 0 0 0 0 0 0 0 0 0 0 0 0 0 0 0 0 0 0 0 0 0 0 0 0 0 0 0 0 0 0 0 0 0 0 0
0 3 0 0 0 0 0 0 0 0 0 0 0 0 0 0 0 0 0 0 0 0 0 0 0 0 0 0 0 0 0 0 0 0 0 0 0 0
3 3 0 0 0 0 0 0 0 0 0 0 0 0 0 0 0 0 0 0 0 0 0 0 0 0 0 0 0 0 0 0 0 0 0 0 0 0
0 0 0 0 0 0 0 0 0 0 0 0 0 0 0 0 0 0 0 0 0 0 0 0 0 0 0 0 0 0 0 0 0 0 0 0 0 0
0 0 0 0 0 0 0 0 0 0 0 0 0 0 0 0 0 0 0 0 0 0 0 0 0 0 0 0 0 0 0 0 0 0 0 0 0 0
0 0 0 0 0 0 0 0 0 0 0 0 0 0 0 0 0 0 0 0 0 0 0 0 0 0 0 0 0 0 0 0 0 0 0 0 0 0
0 0 0 0 0 0 0 0 0 0 0 0 0 0 0 0 0 0 0 0 0 0 0 0 0 0 0 0 0 0 0 0 0 0 0 0 0 0
0 0 0 0 0 0 0 0 0 0 0 0 0 0 0 0 0 0 0 0 0 0 0 0 0 0 0 0 0 0 0 0 0 0 0 0 0 0
0 0 0 0 0 0 0 0 0 0 0 0 0 0 0 0 0 0 0 0 0 0 0 0 0 0 0 0 0 0 0 0 0 0 0 0 0 0
0 0 0 0 0 0 0 0 0 0 0 0 0 0 0 0 0 0 0 0 0 0 0 0 0 0 0 0 0 0 0 0 0 0 0 0 0 0
0 0 0 0 0 0 0 0 0 0 0 0 0 0 0 0 0 0 0 0 0 0 0 0 0 0 0 0 0 0 0 0 0 0 0 0 0 0
0 0 0 0 0 0 0 0 0 0 0 0 0 0 0 0 0 0 0 0 0 0 0 0 0 0 0 0 0 0 0 0 0 0 0 0 0 0
Height
5824 5826 5826 5827 5828 5828 5828 5829 5829 5830 5829 5829 5829 5829 5829 5829 5830 5830 5831 5833 5834 5836 5837 5838 5840 5841 5843 5844 5846 5848 5849 5851 5852 5853 5855 5856 5858 5859
5818 5819 5820 5821 5822 5822 5822 5822 5823 5824 5824 5823 5823 5823 5823 5823 5823 5824 5825 5826 5828 5829 5831 5832 5833 5835 5836 5838 5840 5841 5843 5845 5846 5847 5849 5850 5851 5853
5813 5813 5814 5815 5816 5816 5816 5816 5817 5817 5817 5817 5817 5817 5817 5817 5817 5817 5818 5820 5821 5823 5824 5826 5827 5829 5830 5832 5834 5835 5837 5838 5840 5841 5842 5844 5845 5846
5807 5807 5808 5809 5810 5810 5810 5810 5811 5811 5811 5811 5810 5810 5811 5811 5811 5811 5812 5814 5815 5816 5818 5819 5821 5822 5824 5826 5827 5829 5830 5832 5833 5835 5836 5837 5838 5840
5801 5802 5802 5803 5803 5803 5804 5804 5805 5805 5805 5805 5804 5804 5805 5805 5805 5805 5806 5807 5808 5809 5811 5813 5814 5816 5818 5819 5821 5822 5824 5825 5827 5828 5829 5831 5832 5833
5795 5796 5796 5797 5797 5797 5798 5798 5799 5799 5799 5799 5799 5799 5799 5799 5799 5799 5799 5800 5801 5802 5804 5806 5808 5810 5811 5813 5815 5816 5818 5819 5820 5821 5823 5824 5825 5826
5789 5790 5790 5791 5791 5791 5792 5792 5792 5792 5792 5792 5793 5793 5793 5793 5793 5793 5793 5794 5794 5796 5797 5799 5801 5803 5804 5806 5808 5809 5811 5812 5813 5815 5816 5817 5818 5819
5783 5784 5784 5785 5785 5785 5786 5786 5786 5786 5786 5786 5786 5787 5787 5787 5787 5787 5787 5787 5788 5790 5790 5792 5793 5795 5797 5799 5800 5802 5803 5805 5806 5807 5809 5810 5811 5812
5777 5778 5779 5779 5779 5779 5779 5779 5780 5780 5780 5780 5780 5780 5781 5781 5782 5782 5782 5781 5782 5783 5784 5785 5786 5787 5789 5791 5792 5794 5796 5797 5799 5800 5801 5802 5803 5804
5771 5772 5773 5772 5772 5773 5773 5773 5773 5773 5774 5774 5774 5775 5775 5775 5776 5776 5776 5776 5777 5777 5778 5778 5779 5780 5782 5783 5784 5786 5787 5789 5790 5791 5792 5794 5794 5795
5765 5766 5766 5766 5766 5766 5767 5767 5768 5768 5768 5768 5769 5769 5769 5769 5770 5770 5770 5771 5771 5771 5772 5773 5773 5774 5774 5775 5776 5778 5779 5780 5781 5782 5783 5784 5785 5786
5759 5759 5759 5760 5760 5760 5761 5762 5762 5762 5763 5763 5763 5764 5764 5764 5764 5765 5765 5765 5766 5766 5766 5767 5767 5768 5768 5768 5769 5769 5770 5771 5772 5772 5773 5774 5774 5775
5752 5753 5753 5754 5754 5755 5755 5756 5756 5757 5758 5758 5758 5759 5759 5759 5759 5760 5760 5760 5761 5761 5761 5761 5761 5761 5761 5761 5761 5762 5762 5762 5763 5763 5764 5764 5764 5764
5747 5748 5748 5748 5749 5750 5750 5751 5751 5752 5752 5753 5753 5754 5754 5754 5755 5755 5755 5755 5755 5756 5755 5755 5755 5755 5755 5755 5755 5754 5754 5754 5754 5754 5754 5754 5753 5753
5743 5744 5744 5744 5745 5745 5746 5746 5746 5747 5748 5748 5749 5749 5749 5750 5750 5750 5750 5750 5750 5750 5750 5750 5749 5749 5749 5748 5748 5747 5747 5746 5745 5745 5744 5744 5743 5742
5740 5741 5741 5741 5742 5742 5742 5742 5743 5743 5744 5744 5745 5745 5745 5745 5746 5746 5746 5746 5746 5745 5745 5744 5744 5743 5742 5741 5740 5739 5738 5737 5736 5735 5734 5733 5732 5730
5739 5739 5739 5739 5739 5739 5739 5739 5740 5740 5740 5741 5741 5741 5742 5742 5742 5742 5742 5741 5741 5740 5740 5739 5738 5737 5736 5734 5733 5731 5730 5728 5727 5725 5724 5722 5720 5719
5739 5739 5738 5738 5738 5738 5738 5737 5738 5738 5738 5738 5738 5739 5739 5739 5739 5738 5738 5738 5737 5736 5735 5734 5733 5731 5730 5728 5726 5724 5722 5720 5718 5716 5714 5712 5709 5707
5740 5739 5739 5739 5738 5738 5737 5737 5737 5737 5737 5737 5737 5737 5737 5737 5736 5736 5735 5734 5733 5732 5731 5730 5728 5726 5724 5722 5720 5717 5715 5712 5710 5707 5704 5701 5698 5695
5743 5742 5741 5741 5740 5739 5739 5738 5737 5737 5737 5736 5736 5736 5735 5735 5734 5733 5733 5732 5731 5729 5727 5726 5723 5721 5719 5716 5714 5711 5708 5705 5702 5699 5695 5691 5688 5684
5747 5746 5745 5744 5743 5742 5741 5740 5739 5738 5738 5737 5736 5736 5735 5734 5733 5732 5731 5730 5728 5726 5725 5722 5720 5717 5714 5711 5708 5705 5701 5698 5694 5691 5687 5683 5678 5674
5752 5751 5749 5748 5747 5746 5745 5743 5742 5741 5740 5739 5738 5737 5736 5734 5733 5731 5730 5729 5727 5725 5723 5720 5717 5714 5711 5707 5704 5700 5696 5692 5688 5683 5679 5675 5671 5666
5757 5756 5754 5753 5751 5750 5749 5747 5746 5744 5743 5742 5740 5739 5737 5735 5734 5732 5730 5728 5727 5724 5722 5719 5716 5712 5709 5705 5701 5697 5693 5688 5684 5679 5674 5669 5664 5659
Wind_Speed
22 22 22 22 23 23 23 22 22 22 23 23 23 23 24 24 23 24 25 25 25 25 25 24 24 25 26 26 26 26 26 26 25 25 26 26 26 26
22 22 22 22 23 23 23 23 23 22 23 23 24 23 23 24 24 25 25 26 26 26 25 25 24 24 25 25 26 25 25 25 25 25 25 25 25 25
23 22 22 23 23 23 24 24 24 24 23 24 24 24 23 23 23 24 25 25 26 26 26 25 25 25 25 25 25 25 25 25 25 25 25 25 25 25
22 23 23 24 24 24 24 24 24 24 24 24 24 24 23 23 23 22 23 25 26 26 26 25 24 24 25 25 25 25 25 25 25 25 25 25 25 25
22 22 23 23 23 24 24 24 24 24 24 23 23 23 23 22 22 23 23 24 25 26 26 26 25 24 24 24 25 25 25 25 25 25 25 26 26 26
21 22 22 22 22 22 23 23 23 23 23 22 23 23 23 22 23 23 22 22 24 25 26 26 26 25 25 25 25 25 25 24 24 25 25 25 25 26
21 21 21 22 22 22 22 22 22 22 23 22 22 23 23 22 22 22 22 22 23 24 26 27 26 26 26 26 26 26 25 25 25 25 25 25 25 25
20 21 21 21 21 21 21 21 21 22 22 22 22 22 22 22 21 21 21 20 20 22 24 25 26 27 27 28 28 28 27 27 27 27 27 27 27 27
20 20 20 20 20 21 21 21 21 21 21 21 21 21 21 21 20 20 20 19 19 20 21 22 24 26 27 28 29 29 29 29 30 29 29 29 29 29
20 19 19 19 20 20 20 20 21 20 20 20 20 20 20 20 20 19 19 19 18 19 20 21 23 25 27 29 29 30 31 31 32 32 33 33 33 32
19 19 19 19 20 20 19 19 18 18 18 19 19 19 19 19 19 19 18 18 18 18 18 18 19 21 23 26 27 29 31 32 33 33 34 35 35 36
17 18 18 19 19 19 18 17 17 17 17 17 17 17 17 18 18 17 17 17 17 18 18 18 19 20 21 21 23 26 28 29 30 31 32 33 35 36
15 15 16 17 17 17 17 16 17 17 17 17 16 16 16 16 16 16 16 16 16 17 17 18 18 19 20 22 22 23 25 26 29 30 31 33 35 36
11 12 12 13 14 14 14 15 16 16 16 16 16 16 15 15 15 15 15 16 16 17 17 18 18 19 20 21 22 23 24 26 27 28 30 31 33 35
8 9 10 10 11 12 12 13 13 14 15 15 14 15 15 15 15 15 15 15 16 17 18 19 19 20 20 21 22 24 25 26 28 29 30 32 33 35
5 6 6 6 7 8 9 10 11 11 12 12 12 13 13 14 14 14 14 15 16 17 17 18 19 20 21 22 24 25 26 27 29 30 31 33 34 36
3 3 3 4 5 6 7 7 8 9 9 9 9 10 10 11 12 12 13 14 15 16 17 18 20 21 22 22 24 25 26 27 28 29 31 32 34 35
4 4 3 3 3 3 4 4 4 5 5 6 7 7 8 9 9 10 11 12 13 15 16 17 18 20 21 21 23 24 25 27 28 29 31 32 34 36
9 7 6 6 5 5 5 4 3 3 4 4 5 5 6 7 8 9 10 11 12 14 15 16 17 19 20 21 22 24 25 26 27 29 31 32 34 36
13 12 10 10 9 9 8 7 6 6 5 5 5 5 6 6 7 8 9 10 11 13 14 15 17 18 19 20 21 23 24 25 27 28 29 31 32 34
17 16 15 14 13 12 12 11 10 9 9 9 8 8 8 8 8 8 9 10 11 12 13 14 16 17 17 19 20 22 23 24 25 26 27 29 30 32
18 17 17 16 15 15 14 14 13 12 12 12 11 11 10 10 10 10 10 11 11 12 14 15 16 17 18 19 20 21 22 23 24 25 26 27 28 29
17 17 17 16 16 16 15 15 15 14 13 13 13 13 13 12 12 12 12 12 13 14 15 16 17 18 18 18 20 21 22 23 24 25 25 26 26 27
Wind_Direction
257 260 263 265 268 269 271 271 272 273 274 274 274 273 271 268 267 263 258 257 256 256 255 255 254 253 252 252 253 254 256 256 257 258 258 258 258 257
257 260 263 265 267 269 271 271 271 272 274 275 276 276 274 270 265 262 258 257 255 254 254 254 254 254 252 252 252 253 255 256 256 257 258 258 257 257
259 261 262 264 266 269 270 271 272 273 273 273 276 276 274 270 264 261 259 256 254 253 254 255 255 253 252 251 251 252 253 255 256 257 257 256 256 256
260 262 264 265 267 269 270 271 271 272 273 273 275 275 274 273 266 263 260 257 254 253 253 253 254 253 252 251 252 253 253 255 255 256 256 255 256 257
263 264 264 265 267 268 268 269 270 272 274 273 272 273 274 274 269 267 267 261 254 251 250 251 252 253 253 252 252 252 253 254 255 256 256 256 256 257
263 263 264 266 267 268 269 269 270 272 274 273 271 271 272 275 270 267 271 265 255 250 250 251 252 252 252 252 252 252 253 254 255 256 256 256 256 256
263 263 265 267 267 268 269 270 270 271 273 272 271 272 271 274 273 271 272 269 258 254 251 250 252 250 250 252 252 253 253 254 254 256 256 257 257 257
266 267 267 268 268 268 269 270 270 270 270 271 272 273 271 272 273 273 274 267 262 259 255 252 253 252 251 251 252 252 253 254 255 256 257 258 259 259
267 268 269 269 268 268 269 270 270 271 270 270 271 273 272 271 272 274 273 273 267 265 263 257 254 253 251 250 251 253 254 256 257 257 258 259 260 260
268 269 269 269 269 269 268 269 270 271 271 271 271 272 273 272 271 272 273 274 274 271 270 266 260 258 255 253 252 252 254 257 258 259 261 261 261 261
268 269 268 267 268 268 269 270 271 272 272 272 272 272 273 274 275 273 275 276 275 275 273 270 269 267 263 258 256 256 256 258 259 260 262 263 263 263
268 267 267 266 266 266 268 269 270 272 273 272 271 272 274 274 275 275 276 276 275 275 276 276 272 272 273 271 265 262 260 260 262 262 263 264 265 265
269 267 266 266 265 264 265 267 269 271 270 270 272 273 273 273 274 273 273 274 275 276 277 277 276 276 278 278 275 272 270 269 267 267 268 268 268 267
271 268 267 267 265 264 266 269 269 269 270 270 271 273 274 272 272 274 274 276 276 277 279 280 282 281 280 280 279 278 278 276 275 273 272 271 270 269
272 271 270 268 265 265 267 269 269 268 269 270 271 272 274 276 276 276 277 278 280 281 281 282 282 283 283 282 281 279 278 278 277 276 275 275 275 273
287 280 275 272 270 270 272 273 271 269 269 271 272 275 276 278 278 279 280 282 284 284 285 286 287 287 287 286 285 284 282 281 279 278 277 276 275 275
338 315 294 285 283 282 280 279 277 274 274 275 276 278 280 282 282 283 285 287 289 289 290 291 291 292 292 291 290 288 288 287 285 284 282 281 280 278
27 21 16 1 342 327 314 302 296 292 290 287 285 285 288 290 291 294 295 296 296 296 296 297 297 297 297 297 296 295 293 292 290 289 287 286 285 284
51 52 52 45 36 30 26 18 6 354 343 328 316 307 305 307 307 307 308 308 308 308 307 306 305 304 303 302 300 300 299 298 297 295 293 292 290 288
57 59 59 56 54 51 48 45 41 32 22 12 1 351 342 336 332 327 323 320 319 318 317 316 315 313 311 310 309 308 306 305 304 302 301 299 298 295
57 58 59 59 58 56 54 52 50 48 44 39 35 29 20 11 1 352 346 342 338 335 334 333 331 328 325 322 320 319 318 316 314 311 309 307 305 303
55 56 57 56 56 55 53 52 51 49 46 42 38 33 28 23 18 13 8 4 360 355 352 349 346 343 339 337 335 333 330 328 325 321 318 315 312 310
52 53 54 54 53 53 51 50 48 46 44 40 37 33 30 27 24 20 17 13 10 7 3 360 357 354 352 349 347 344 342 339 336 334 330 327 324 322